TimePST,TemperatureF,Dew PointF,Humidity,Sea Level PressureIn,VisibilityMPH,Wind Direction,Wind SpeedMPH,Gust SpeedMPH,PrecipitationIn,Events,Conditions,WindDirDegrees,DateUTC
1:56 AM,-2.0,-6.0,83,30.71,10.0,East,3.5,-,N/A,,Clear,100,2013-01-21 09:56:00
2:56 AM,-2.9,-7.1,82,30.69,10.0,East,3.5,-,N/A,,Clear,80,2013-01-21 10:56:00
4:56 AM,-5.1,-9.9,80,30.73,10.0,East,4.6,-,N/A,,Clear,90,2013-01-21 12:56:00
5:56 AM,-6.0,-9.9,83,30.74,10.0,East,4.6,-,N/A,,Clear,90,2013-01-21 13:56:00
6:56 AM,-7.1,-11.0,83,30.76,10.0,ENE,5.8,-,N/A,,Clear,60,2013-01-21 14:56:00
7:56 AM,-5.1,-8.0,87,30.77,10.0,Calm,Calm,-,N/A,,Clear,0,2013-01-21 15:56:00
8:56 AM,-0.9,-7.1,75,30.80,10.0,East,4.6,-,N/A,,Clear,80,2013-01-21 16:56:00
9:56 AM,7.0,1.0,77,30.75,10.0,Calm,Calm,-,N/A,,Clear,0,2013-01-21 17:56:00
10:56 AM,10.9,1.9,67,30.74,10.0,Calm,Calm,-,N/A,,Clear,0,2013-01-21 18:56:00
11:56 AM,14.0,5.0,67,30.69,10.0,Calm,Calm,-,N/A,,Clear,0,2013-01-21 19:56:00
12:56 PM,18.0,7.0,62,30.64,10.0,Calm,Calm,-,N/A,,Clear,0,2013-01-21 20:56:00
1:56 PM,19.9,8.1,60,30.61,10.0,ENE,5.8,-,N/A,,Clear,70,2013-01-21 21:56:00
2:56 PM,21.0,10.0,63,30.60,10.0,East,5.8,-,N/A,,Clear,80,2013-01-21 22:56:00
3:56 PM,21.9,10.0,60,30.59,10.0,Calm,Calm,-,N/A,,Clear,0,2013-01-21 23:56:00
4:56 PM,17.1,7.0,65,30.60,10.0,East,5.8,-,N/A,,Clear,100,2013-01-22 00:56:00
5:56 PM,12.9,6.1,74,30.63,10.0,Calm,Calm,-,N/A,,Clear,0,2013-01-22 01:56:00
6:56 PM,8.1,1.9,76,30.66,10.0,Calm,Calm,-,N/A,,Clear,0,2013-01-22 02:56:00
7:56 PM,9.0,3.0,77,30.66,10.0,NNE,4.6,-,N/A,,Clear,20,2013-01-22 03:56:00
8:56 PM,5.0,-0.9,76,30.67,10.0,Calm,Calm,-,N/A,,Clear,0,2013-01-22 04:56:00
9:56 PM,-0.0,-4.0,83,30.66,2.5,East,3.5,-,N/A,,Clear,90,2013-01-22 05:56:00
10:56 PM,1.9,-2.0,83,30.64,10.0,East,3.5,-,N/A,,Clear,90,2013-01-22 06:56:00
11:56 PM,-0.0,-5.1,79,30.65,10.0,East,6.9,-,N/A,,Clear,80,2013-01-22 07:56:00